contact:dominique.lefevre@mio.osupytheas.fr, maurice.libes@osupytheas.fr, didier.mallarino@osupytheas.fr
Project:EMSO http://www.emso-fr.org/EMSO-France
Depth: 2436.0 m
Title:EMSO Ligure Ouest : Data MII capteur MICROCAT
DateTime_Computer,Latitude,Longitude,Temperature,Conductivity,Pressure,DateTime_Instrument
DateTime_Computer,Latitude,Longitude,degC,S m-1,dbar,DateTime_Instrument
2022-01-06T00:01:54Z,42.805,6.029,13.3013,4.60094,2470.24,2022-1-06T02:03:24Z
2022-01-06T00:04:57Z,42.805,6.029,13.3019,4.60109,2470.217,2022-1-06T02:06:27Z
2022-01-06T00:08:00Z,42.805,6.029,13.3028,4.60089,2470.25,2022-1-06T02:09:30Z
2022-01-06T00:11:03Z,42.805,6.029,13.3024,4.60103,2470.217,2022-1-06T02:12:33Z
2022-01-06T00:14:06Z,42.805,6.029,13.3024,4.60082,2470.25,2022-1-06T02:15:36Z
2022-01-06T00:17:09Z,42.805,6.029,13.3011,4.60094,2470.24,2022-1-06T02:18:39Z
2022-01-06T00:20:12Z,42.805,6.029,13.3031,4.60096,2470.227,2022-1-06T02:21:43Z
2022-01-06T00:23:15Z,42.805,6.029,13.3008,4.60070,2470.217,2022-1-06T02:24:46Z
2022-01-06T00:26:18Z,42.805,6.029,13.3020,4.60104,2470.227,2022-1-06T02:27:49Z
2022-01-06T00:29:22Z,42.805,6.029,13.3013,4.60086,2470.264,2022-1-06T02:30:52Z
2022-01-06T00:32:25Z,42.805,6.029,13.3034,4.60098,2470.227,2022-1-06T02:33:55Z
2022-01-06T00:35:28Z,42.805,6.029,13.3015,4.60082,2470.217,2022-1-06T02:36:58Z
2022-01-06T00:38:31Z,42.805,6.029,13.3021,4.60096,2470.217,2022-1-06T02:40:01Z
2022-01-06T00:41:34Z,42.805,6.029,13.3014,4.60087,2470.18,2022-1-06T02:43:04Z
2022-01-06T00:44:37Z,42.805,6.029,13.3009,4.60059,2470.203,2022-1-06T02:46:07Z
2022-01-06T00:47:40Z,42.805,6.029,13.3017,4.60102,2470.217,2022-1-06T02:49:11Z
2022-01-06T00:50:43Z,42.805,6.029,13.3013,4.60087,2470.171,2022-1-06T02:52:14Z
2022-01-06T00:53:47Z,42.805,6.029,13.3015,4.60101,2470.203,2022-1-06T02:55:17Z
2022-01-06T00:56:50Z,42.805,6.029,13.3019,4.60090,2470.227,2022-1-06T02:58:20Z
2022-01-06T00:59:53Z,42.805,6.029,13.3036,4.60102,2470.194,2022-1-06T03:01:23Z
2022-01-06T01:02:56Z,42.805,6.029,13.3019,4.60094,2470.194,2022-1-06T03:04:26Z
2022-01-06T01:05:59Z,42.805,6.029,13.3024,4.60094,2470.18,2022-1-06T03:07:29Z
2022-01-06T01:09:02Z,42.805,6.029,13.3046,4.60104,2470.203,2022-1-06T03:10:32Z
2022-01-06T01:12:05Z,42.805,6.029,13.3018,4.60102,2470.18,2022-1-06T03:13:36Z
2022-01-06T01:15:08Z,42.805,6.029,13.3036,4.60101,2470.24,2022-1-06T03:16:39Z
2022-01-06T01:18:12Z,42.805,6.029,13.3019,4.60062,2470.18,2022-1-06T03:19:42Z
2022-01-06T01:21:15Z,42.805,6.029,13.3026,4.60084,2470.18,2022-1-06T03:22:45Z
2022-01-06T01:24:18Z,42.805,6.029,13.3006,4.60093,2470.194,2022-1-06T03:25:48Z
2022-01-06T01:27:21Z,42.805,6.029,13.3022,4.60072,2470.194,2022-1-06T03:28:51Z
2022-01-06T01:30:24Z,42.805,6.029,13.3018,4.60092,2470.194,2022-1-06T03:31:54Z
2022-01-06T01:33:27Z,42.805,6.029,13.3013,4.60064,2470.203,2022-1-06T03:34:57Z
2022-01-06T01:36:30Z,42.805,6.029,13.3015,4.60063,2470.217,2022-1-06T03:38:00Z
2022-01-06T01:39:33Z,42.805,6.029,13.3013,4.60099,2470.18,2022-1-06T03:41:04Z
2022-01-06T01:42:36Z,42.805,6.029,13.3014,4.60091,2470.217,2022-1-06T03:44:07Z
2022-01-06T01:45:40Z,42.805,6.029,13.3014,4.60088,2470.194,2022-1-06T03:47:10Z
2022-01-06T01:48:43Z,42.805,6.029,13.3016,4.60052,2470.18,2022-1-06T03:50:13Z
2022-01-06T01:51:46Z,42.805,6.029,13.3041,4.60088,2470.18,2022-1-06T03:53:16Z
2022-01-06T01:54:49Z,42.805,6.029,13.3036,4.60082,2470.156,2022-1-06T03:56:19Z
2022-01-06T01:57:52Z,42.805,6.029,13.3019,4.60089,2470.194,2022-1-06T03:59:22Z
2022-01-06T02:00:55Z,42.805,6.029,13.3013,4.60067,2470.194,2022-1-06T04:02:25Z
2022-01-06T02:03:58Z,42.805,6.029,13.3007,4.60059,2470.217,2022-1-06T04:05:29Z
2022-01-06T02:07:01Z,42.805,6.029,13.3010,4.60078,2470.18,2022-1-06T04:08:32Z
2022-01-06T02:10:05Z,42.805,6.029,13.3011,4.60089,2470.171,2022-1-06T04:11:35Z
2022-01-06T02:13:08Z,42.805,6.029,13.3014,4.60087,2470.18,2022-1-06T04:14:38Z
2022-01-06T02:16:11Z,42.805,6.029,13.3014,4.60104,2470.171,2022-1-06T04:17:41Z
2022-01-06T02:19:14Z,42.805,6.029,13.3034,4.60102,2470.171,2022-1-06T04:20:44Z
2022-01-06T02:22:17Z,42.805,6.029,13.3020,4.60064,2470.133,2022-1-06T04:23:47Z
2022-01-06T02:25:20Z,42.805,6.029,13.3017,4.60097,2470.171,2022-1-06T04:26:50Z
2022-01-06T02:28:23Z,42.805,6.029,13.3028,4.60083,2470.18,2022-1-06T04:29:54Z
2022-01-06T02:31:26Z,42.805,6.029,13.3024,4.60093,2470.133,2022-1-06T04:32:57Z
2022-01-06T02:34:29Z,42.805,6.029,13.3025,4.60092,2470.171,2022-1-06T04:36:00Z
2022-01-06T02:37:33Z,42.805,6.029,13.3029,4.60074,2470.156,2022-1-06T04:39:03Z
2022-01-06T02:40:36Z,42.805,6.029,13.3019,4.60094,2470.147,2022-1-06T04:42:06Z
2022-01-06T02:43:39Z,42.805,6.029,13.3017,4.60087,2470.11,2022-1-06T04:45:09Z
2022-01-06T02:46:42Z,42.805,6.029,13.3031,4.60102,2470.171,2022-1-06T04:48:12Z
2022-01-06T02:49:45Z,42.805,6.029,13.3014,4.60094,2470.11,2022-1-06T04:51:15Z
2022-01-06T02:52:48Z,42.805,6.029,13.3014,4.60087,2470.133,2022-1-06T04:54:18Z
2022-01-06T02:55:51Z,42.805,6.029,13.3021,4.60089,2470.133,2022-1-06T04:57:22Z
2022-01-06T02:58:54Z,42.805,6.029,13.3031,4.60072,2470.11,2022-1-06T05:00:25Z
2022-01-06T03:01:58Z,42.805,6.029,13.3025,4.60076,2470.133,2022-1-06T05:03:28Z
2022-01-06T03:05:01Z,42.805,6.029,13.3034,4.60069,2470.11,2022-1-06T05:06:31Z
2022-01-06T03:08:04Z,42.805,6.029,13.3026,4.60068,2470.147,2022-1-06T05:09:34Z
2022-01-06T03:11:07Z,42.805,6.029,13.3020,4.60074,2470.147,2022-1-06T05:12:37Z
2022-01-06T03:14:10Z,42.805,6.029,13.3024,4.60099,2470.11,2022-1-06T05:15:40Z
2022-01-06T03:17:13Z,42.805,6.029,13.3019,4.60067,2470.11,2022-1-06T05:18:43Z
2022-01-06T03:20:16Z,42.805,6.029,13.3020,4.60073,2470.133,2022-1-06T05:21:47Z
2022-01-06T03:23:19Z,42.805,6.029,13.3021,4.60098,2470.11,2022-1-06T05:24:50Z
2022-01-06T03:26:23Z,42.805,6.029,13.3028,4.60092,2470.124,2022-1-06T05:27:53Z
2022-01-06T03:29:26Z,42.805,6.029,13.3015,4.60057,2470.124,2022-1-06T05:30:56Z
2022-01-06T03:32:29Z,42.805,6.029,13.3034,4.60092,2470.133,2022-1-06T05:33:59Z
2022-01-06T03:35:32Z,42.805,6.029,13.3024,4.60072,2470.087,2022-1-06T05:37:02Z
2022-01-06T03:38:35Z,42.805,6.029,13.3024,4.60039,2470.11,2022-1-06T05:40:05Z
2022-01-06T03:41:38Z,42.805,6.029,13.3024,4.60078,2470.1,2022-1-06T05:43:08Z
2022-01-06T03:44:41Z,42.805,6.029,13.3026,4.60054,2470.077,2022-1-06T05:46:11Z
2022-01-06T03:47:44Z,42.805,6.029,13.3027,4.60040,2470.11,2022-1-06T05:49:15Z
2022-01-06T03:50:47Z,42.805,6.029,13.3029,4.60063,2470.1,2022-1-06T05:52:18Z
2022-01-06T03:53:51Z,42.805,6.029,13.3031,4.60044,2470.087,2022-1-06T05:55:21Z
2022-01-06T03:56:54Z,42.805,6.029,13.3026,4.60055,2470.087,2022-1-06T05:58:24Z
2022-01-06T03:59:57Z,42.805,6.029,13.3018,4.60047,2470.053,2022-1-06T06:01:27Z
2022-01-06T04:03:00Z,42.805,6.029,13.3032,4.60050,2470.1,2022-1-06T06:04:30Z
2022-01-06T04:06:03Z,42.805,6.029,13.3025,4.60046,2470.063,2022-1-06T06:07:33Z
2022-01-06T04:09:06Z,42.805,6.029,13.3020,4.60032,2470.087,2022-1-06T06:10:36Z
2022-01-06T04:12:09Z,42.805,6.029,13.3021,4.60038,2470.04,2022-1-06T06:13:40Z
2022-01-06T04:15:12Z,42.805,6.029,13.3026,4.60066,2470.063,2022-1-06T06:16:43Z
2022-01-06T04:18:15Z,42.805,6.029,13.3067,4.60064,2470.11,2022-1-06T06:19:46Z
2022-01-06T04:21:19Z,42.805,6.029,13.3023,4.60051,2470.087,2022-1-06T06:22:49Z
2022-01-06T04:24:22Z,42.805,6.029,13.3021,4.60049,2470.063,2022-1-06T06:25:52Z
2022-01-06T04:27:25Z,42.805,6.029,13.3021,4.60041,2470.063,2022-1-06T06:28:55Z
2022-01-06T04:30:28Z,42.805,6.029,13.3017,4.60036,2470.11,2022-1-06T06:31:58Z
2022-01-06T04:33:31Z,42.805,6.029,13.3009,4.60046,2470.1,2022-1-06T06:35:01Z
2022-01-06T04:36:34Z,42.805,6.029,13.3026,4.60044,2470.063,2022-1-06T06:38:04Z
2022-01-06T04:39:37Z,42.805,6.029,13.3019,4.60041,2470.087,2022-1-06T06:41:08Z
2022-01-06T04:42:40Z,42.805,6.029,13.3011,4.60024,2470.063,2022-1-06T06:44:11Z
2022-01-06T04:45:44Z,42.805,6.029,13.3018,4.60046,2470.087,2022-1-06T06:47:14Z
2022-01-06T04:48:47Z,42.805,6.029,13.3019,4.60069,2470.087,2022-1-06T06:50:17Z
2022-01-06T04:51:50Z,42.805,6.029,13.3024,4.60057,2470.04,2022-1-06T06:53:20Z
2022-01-06T04:54:53Z,42.805,6.029,13.3020,4.60049,2470.053,2022-1-06T06:56:23Z
2022-01-06T04:57:56Z,42.805,6.029,13.3031,4.60086,2470.11,2022-1-06T06:59:26Z
2022-01-06T05:00:59Z,42.805,6.029,13.3019,4.60041,2470.063,2022-1-06T07:02:29Z
2022-01-06T05:04:02Z,42.805,6.029,13.3017,4.60037,2470.1,2022-1-06T07:05:33Z
2022-01-06T05:07:05Z,42.805,6.029,13.3011,4.60061,2470.087,2022-1-06T07:08:36Z
2022-01-06T05:10:09Z,42.805,6.029,13.3016,4.60044,2470.087,2022-1-06T07:11:39Z
2022-01-06T05:13:12Z,42.805,6.029,13.3015,4.60047,2470.087,2022-1-06T07:14:42Z
2022-01-06T05:16:15Z,42.805,6.029,13.3012,4.60054,2470.063,2022-1-06T07:17:45Z
2022-01-06T05:19:18Z,42.805,6.029,13.3016,4.60061,2470.087,2022-1-06T07:20:48Z
2022-01-06T05:22:21Z,42.805,6.029,13.3009,4.60050,2470.04,2022-1-06T07:23:51Z
2022-01-06T05:25:24Z,42.805,6.029,13.3014,4.60069,2470.11,2022-1-06T07:26:54Z
2022-01-06T05:28:27Z,42.805,6.029,13.3013,4.60073,2470.063,2022-1-06T07:29:57Z
2022-01-06T05:31:30Z,42.805,6.029,13.3020,4.60050,2470.063,2022-1-06T07:33:01Z
2022-01-06T05:34:33Z,42.805,6.029,13.3019,4.60069,2470.087,2022-1-06T07:36:04Z
2022-01-06T05:37:37Z,42.805,6.029,13.3011,4.60069,2470.087,2022-1-06T07:39:07Z
2022-01-06T05:40:40Z,42.805,6.029,13.3009,4.60051,2470.1,2022-1-06T07:42:10Z
2022-01-06T05:43:43Z,42.805,6.029,13.3012,4.60053,2470.1,2022-1-06T07:45:13Z
2022-01-06T05:46:46Z,42.805,6.029,13.3006,4.60046,2470.087,2022-1-06T07:48:16Z
2022-01-06T05:49:49Z,42.805,6.029,13.3019,4.60061,2470.063,2022-1-06T07:51:19Z
2022-01-06T05:52:52Z,42.805,6.029,13.3016,4.60077,2470.124,2022-1-06T07:54:22Z
2022-01-06T05:55:55Z,42.805,6.029,13.3006,4.60055,2470.087,2022-1-06T07:57:26Z
2022-01-06T05:58:58Z,42.805,6.029,13.3011,4.60069,2470.147,2022-1-06T08:00:29Z
2022-01-06T06:02:02Z,42.805,6.029,13.3019,4.60064,2470.077,2022-1-06T08:03:32Z
2022-01-06T06:05:05Z,42.805,6.029,13.3015,4.60074,2470.11,2022-1-06T08:06:35Z
2022-01-06T06:08:08Z,42.805,6.029,13.3018,4.60040,2470.096,2022-1-06T08:09:38Z
2022-01-06T06:11:11Z,42.805,6.029,13.3022,4.60032,2470.1,2022-1-06T08:12:41Z
2022-01-06T06:14:14Z,42.805,6.029,13.3017,4.60044,2470.1,2022-1-06T08:15:44Z
2022-01-06T06:17:17Z,42.805,6.029,13.3013,4.60056,2470.124,2022-1-06T08:18:47Z
2022-01-06T06:20:20Z,42.805,6.029,13.3018,4.60064,2470.147,2022-1-06T08:21:50Z
2022-01-06T06:23:23Z,42.805,6.029,13.3028,4.60057,2470.087,2022-1-06T08:24:54Z
2022-01-06T06:26:26Z,42.805,6.029,13.3015,4.60047,2470.171,2022-1-06T08:27:57Z
2022-01-06T06:29:30Z,42.805,6.029,13.3022,4.60034,2470.147,2022-1-06T08:31:00Z
2022-01-06T06:32:33Z,42.805,6.029,13.3024,4.60044,2470.1,2022-1-06T08:34:03Z
2022-01-06T06:35:36Z,42.805,6.029,13.3011,4.60041,2470.133,2022-1-06T08:37:06Z
2022-01-06T06:38:39Z,42.805,6.029,13.3016,4.60060,2470.124,2022-1-06T08:40:09Z
2022-01-06T06:41:42Z,42.805,6.029,13.3027,4.60039,2470.171,2022-1-06T08:43:12Z
2022-01-06T06:44:45Z,42.805,6.029,13.3021,4.60066,2470.124,2022-1-06T08:46:15Z
2022-01-06T06:47:48Z,42.805,6.029,13.3021,4.60050,2470.156,2022-1-06T08:49:19Z
2022-01-06T06:50:51Z,42.805,6.029,13.3020,4.60044,2470.133,2022-1-06T08:52:22Z
2022-01-06T06:53:55Z,42.805,6.029,13.3019,4.60038,2470.18,2022-1-06T08:55:25Z
2022-01-06T06:56:58Z,42.805,6.029,13.3018,4.60039,2470.156,2022-1-06T08:58:28Z
2022-01-06T07:00:01Z,42.805,6.029,13.3021,4.60068,2470.147,2022-1-06T09:01:31Z
2022-01-06T07:03:04Z,42.805,6.029,13.3021,4.60077,2470.171,2022-1-06T09:04:34Z
2022-01-06T07:06:07Z,42.805,6.029,13.3031,4.60077,2470.194,2022-1-06T09:07:37Z
2022-01-06T07:09:10Z,42.805,6.029,13.3022,4.60044,2470.171,2022-1-06T09:10:40Z
2022-01-06T07:12:13Z,42.805,6.029,13.3024,4.60044,2470.133,2022-1-06T09:13:43Z
2022-01-06T07:15:16Z,42.805,6.029,13.3018,4.60038,2470.147,2022-1-06T09:16:47Z
2022-01-06T07:18:19Z,42.805,6.029,13.3018,4.60077,2470.171,2022-1-06T09:19:50Z
2022-01-06T07:21:23Z,42.805,6.029,13.3024,4.60061,2470.18,2022-1-06T09:22:53Z
2022-01-06T07:24:26Z,42.805,6.029,13.3034,4.60072,2470.18,2022-1-06T09:25:56Z
2022-01-06T07:27:29Z,42.805,6.029,13.3019,4.60039,2470.143,2022-1-06T09:28:59Z
2022-01-06T07:30:32Z,42.805,6.029,13.3013,4.60054,2470.194,2022-1-06T09:32:02Z
2022-01-06T07:33:35Z,42.805,6.029,13.3016,4.60072,2470.194,2022-1-06T09:35:05Z
2022-01-06T07:36:38Z,42.805,6.029,13.3014,4.60043,2470.11,2022-1-06T09:38:08Z
2022-01-06T07:39:41Z,42.805,6.029,13.3011,4.60066,2470.147,2022-1-06T09:41:12Z
2022-01-06T07:42:44Z,42.805,6.029,13.3014,4.60067,2470.18,2022-1-06T09:44:15Z
2022-01-06T07:45:48Z,42.805,6.029,13.3020,4.60039,2470.171,2022-1-06T09:47:18Z
2022-01-06T07:48:51Z,42.805,6.029,13.3005,4.60060,2470.18,2022-1-06T09:50:21Z
2022-01-06T07:51:54Z,42.805,6.029,13.3003,4.60066,2470.24,2022-1-06T09:53:24Z
2022-01-06T07:54:57Z,42.805,6.029,13.3012,4.60062,2470.203,2022-1-06T09:56:27Z
2022-01-06T07:58:00Z,42.805,6.029,13.3005,4.60061,2470.203,2022-1-06T09:59:30Z
2022-01-06T08:01:03Z,42.805,6.029,13.3013,4.60060,2470.18,2022-1-06T10:02:33Z
2022-01-06T08:04:06Z,42.805,6.029,13.3004,4.60045,2470.203,2022-1-06T10:05:37Z
2022-01-06T08:07:09Z,42.805,6.029,13.3006,4.60047,2470.24,2022-1-06T10:08:40Z
2022-01-06T08:10:12Z,42.805,6.029,13.3011,4.60050,2470.203,2022-1-06T10:11:43Z
2022-01-06T08:13:16Z,42.805,6.029,13.3004,4.60046,2470.18,2022-1-06T10:14:46Z
2022-01-06T08:16:19Z,42.805,6.029,13.3015,4.60062,2470.227,2022-1-06T10:17:49Z
2022-01-06T08:19:22Z,42.805,6.029,13.3005,4.60068,2470.227,2022-1-06T10:20:52Z
2022-01-06T08:22:25Z,42.805,6.029,13.3004,4.60050,2470.217,2022-1-06T10:23:55Z
2022-01-06T08:25:28Z,42.805,6.029,13.3013,4.60057,2470.203,2022-1-06T10:26:58Z
2022-01-06T08:28:31Z,42.805,6.029,13.3006,4.60046,2470.203,2022-1-06T10:30:02Z
2022-01-06T08:31:34Z,42.805,6.029,13.3004,4.60061,2470.264,2022-1-06T10:33:05Z
2022-01-06T08:34:38Z,42.805,6.029,13.3007,4.60077,2470.227,2022-1-06T10:36:08Z
2022-01-06T08:37:41Z,42.805,6.029,13.3017,4.60063,2470.24,2022-1-06T10:39:11Z
2022-01-06T08:40:44Z,42.805,6.029,13.3006,4.60058,2470.264,2022-1-06T10:42:14Z
2022-01-06T08:43:47Z,42.805,6.029,13.3014,4.60052,2470.24,2022-1-06T10:45:17Z
2022-01-06T08:46:50Z,42.805,6.029,13.3006,4.60045,2470.24,2022-1-06T10:48:20Z
2022-01-06T08:49:53Z,42.805,6.029,13.3008,4.60046,2470.217,2022-1-06T10:51:23Z
2022-01-06T08:52:56Z,42.805,6.029,13.3005,4.60065,2470.227,2022-1-06T10:54:27Z
2022-01-06T08:55:59Z,42.805,6.029,13.3013,4.60053,2470.227,2022-1-06T10:57:30Z
2022-01-06T08:59:02Z,42.805,6.029,13.3011,4.60053,2470.25,2022-1-06T11:00:33Z
2022-01-06T09:02:06Z,42.805,6.029,13.3004,4.60049,2470.25,2022-1-06T11:03:36Z
2022-01-06T09:05:09Z,42.805,6.029,13.3007,4.60052,2470.227,2022-1-06T11:06:39Z
2022-01-06T09:08:12Z,42.805,6.029,13.3015,4.60063,2470.24,2022-1-06T11:09:42Z
2022-01-06T09:11:15Z,42.805,6.029,13.3012,4.60073,2470.203,2022-1-06T11:12:45Z
2022-01-06T09:14:18Z,42.805,6.029,13.3021,4.60064,2470.25,2022-1-06T11:15:48Z
2022-01-06T09:17:21Z,42.805,6.029,13.3006,4.60065,2470.264,2022-1-06T11:18:52Z
2022-01-06T09:20:24Z,42.805,6.029,13.3005,4.60069,2470.24,2022-1-06T11:21:55Z
2022-01-06T09:23:27Z,42.805,6.029,13.3006,4.60053,2470.264,2022-1-06T11:24:58Z
2022-01-06T09:26:31Z,42.805,6.029,13.3009,4.60067,2470.227,2022-1-06T11:28:01Z
2022-01-06T09:29:34Z,42.805,6.029,13.3013,4.60072,2470.227,2022-1-06T11:31:04Z
2022-01-06T09:32:37Z,42.805,6.029,13.3019,4.60081,2470.24,2022-1-06T11:34:07Z
2022-01-06T09:35:40Z,42.805,6.029,13.3006,4.60084,2470.227,2022-1-06T11:37:10Z
2022-01-06T09:38:43Z,42.805,6.029,13.3012,4.60085,2470.227,2022-1-06T11:40:13Z
2022-01-06T09:41:46Z,42.805,6.029,13.3013,4.60079,2470.203,2022-1-06T11:43:16Z
2022-01-06T09:44:49Z,42.805,6.029,13.3011,4.60046,2470.203,2022-1-06T11:46:20Z
2022-01-06T09:47:52Z,42.805,6.029,13.3007,4.60051,2470.213,2022-1-06T11:49:23Z
2022-01-06T09:50:56Z,42.805,6.029,13.3008,4.60057,2470.24,2022-1-06T11:52:26Z
2022-01-06T09:53:59Z,42.805,6.029,13.3018,4.60087,2470.24,2022-1-06T11:55:29Z
2022-01-06T09:57:02Z,42.805,6.029,13.3015,4.60079,2470.217,2022-1-06T11:58:32Z
2022-01-06T10:00:05Z,42.805,6.029,13.3019,4.60089,2470.217,2022-1-06T12:01:35Z
2022-01-06T10:03:08Z,42.805,6.029,13.3019,4.60088,2470.166,2022-1-06T12:04:38Z
2022-01-06T10:06:11Z,42.805,6.029,13.3021,4.60092,2470.217,2022-1-06T12:07:42Z
2022-01-06T10:09:14Z,42.805,6.029,13.3018,4.60099,2470.208,2022-1-06T12:10:45Z
2022-01-06T10:12:17Z,42.805,6.029,13.3015,4.60075,2470.18,2022-1-06T12:13:48Z
2022-01-06T10:15:21Z,42.805,6.029,13.3021,4.60087,2470.203,2022-1-06T12:16:51Z
2022-01-06T10:18:24Z,42.805,6.029,13.3020,4.60073,2470.217,2022-1-06T12:19:54Z
2022-01-06T10:21:27Z,42.805,6.029,13.3009,4.60084,2470.194,2022-1-06T12:22:57Z
2022-01-06T10:24:30Z,42.805,6.029,13.3017,4.60067,2470.133,2022-1-06T12:26:00Z
2022-01-06T10:27:33Z,42.805,6.029,13.3016,4.60062,2470.156,2022-1-06T12:29:03Z
2022-01-06T10:30:36Z,42.805,6.029,13.3015,4.60087,2470.203,2022-1-06T12:32:06Z
2022-01-06T10:33:39Z,42.805,6.029,13.3013,4.60074,2470.203,2022-1-06T12:35:10Z
2022-01-06T10:36:42Z,42.805,6.029,13.3018,4.60081,2470.203,2022-1-06T12:38:13Z
2022-01-06T10:39:46Z,42.805,6.029,13.3011,4.60087,2470.194,2022-1-06T12:41:16Z
2022-01-06T10:42:49Z,42.805,6.029,13.3031,4.60079,2470.18,2022-1-06T12:44:19Z
2022-01-06T10:45:52Z,42.805,6.029,13.3009,4.60088,2470.18,2022-1-06T12:47:22Z
2022-01-06T10:48:55Z,42.805,6.029,13.3010,4.60072,2470.194,2022-1-06T12:50:25Z
2022-01-06T10:51:58Z,42.805,6.029,13.3023,4.60097,2470.194,2022-1-06T12:53:28Z
2022-01-06T10:55:01Z,42.805,6.029,13.3029,4.60080,2470.171,2022-1-06T12:56:32Z
2022-01-06T10:58:04Z,42.805,6.029,13.3021,4.60087,2470.194,2022-1-06T12:59:35Z
2022-01-06T11:01:07Z,42.805,6.029,13.3014,4.60112,2470.156,2022-1-06T13:02:38Z
2022-01-06T11:04:11Z,42.805,6.029,13.3020,4.60099,2470.133,2022-1-06T13:05:41Z
2022-01-06T11:07:14Z,42.805,6.029,13.3026,4.60099,2470.133,2022-1-06T13:08:44Z
2022-01-06T11:10:17Z,42.805,6.029,13.3031,4.60077,2470.133,2022-1-06T13:11:47Z
2022-01-06T11:13:20Z,42.805,6.029,13.3010,4.60053,2470.147,2022-1-06T13:14:50Z
2022-01-06T11:16:23Z,42.805,6.029,13.3031,4.60074,2470.147,2022-1-06T13:17:53Z
2022-01-06T11:19:26Z,42.805,6.029,13.3020,4.60074,2470.156,2022-1-06T13:20:56Z
2022-01-06T11:22:29Z,42.805,6.029,13.3020,4.60087,2470.11,2022-1-06T13:24:00Z
2022-01-06T11:25:32Z,42.805,6.029,13.3008,4.60076,2470.087,2022-1-06T13:27:03Z
2022-01-06T11:28:36Z,42.805,6.029,13.3011,4.60084,2470.11,2022-1-06T13:30:06Z
2022-01-06T11:31:39Z,42.805,6.029,13.3013,4.60060,2470.124,2022-1-06T13:33:09Z
2022-01-06T11:34:42Z,42.805,6.029,13.3010,4.60084,2470.087,2022-1-06T13:36:12Z
2022-01-06T11:37:45Z,42.805,6.029,13.3009,4.60078,2470.087,2022-1-06T13:39:15Z
2022-01-06T11:40:48Z,42.805,6.029,13.3004,4.60057,2470.11,2022-1-06T13:42:18Z
2022-01-06T11:43:51Z,42.805,6.029,13.3007,4.60052,2470.1,2022-1-06T13:45:21Z
2022-01-06T11:46:54Z,42.805,6.029,13.3018,4.60065,2470.087,2022-1-06T13:48:25Z
2022-01-06T11:49:57Z,42.805,6.029,13.3014,4.60063,2470.063,2022-1-06T13:51:28Z
2022-01-06T11:53:01Z,42.805,6.029,13.3008,4.60067,2470.04,2022-1-06T13:54:31Z
2022-01-06T11:56:04Z,42.805,6.029,13.3009,4.60057,2470.11,2022-1-06T13:57:34Z
2022-01-06T11:59:07Z,42.805,6.029,13.3014,4.60062,2470.077,2022-1-06T14:00:37Z
2022-01-06T12:02:10Z,42.805,6.029,13.3011,4.60072,2470.04,2022-1-06T14:03:40Z
2022-01-06T12:05:13Z,42.805,6.029,13.3009,4.60074,2470.063,2022-1-06T14:06:43Z
2022-01-06T12:08:16Z,42.805,6.029,13.3021,4.60074,2470.063,2022-1-06T14:09:46Z
2022-01-06T12:11:19Z,42.805,6.029,13.3017,4.60061,2470.053,2022-1-06T14:12:50Z
2022-01-06T12:14:22Z,42.805,6.029,13.3009,4.60079,2470.063,2022-1-06T14:15:53Z
2022-01-06T12:17:26Z,42.805,6.029,13.3024,4.60072,2470.04,2022-1-06T14:18:56Z
2022-01-06T12:20:29Z,42.805,6.029,13.3015,4.60076,2470.063,2022-1-06T14:21:59Z
2022-01-06T12:23:32Z,42.805,6.029,13.3011,4.60084,2470.03,2022-1-06T14:25:02Z
2022-01-06T12:26:35Z,42.805,6.029,13.3021,4.60089,2470.04,2022-1-06T14:28:05Z
2022-01-06T12:29:38Z,42.805,6.029,13.3011,4.60084,2470.007,2022-1-06T14:31:08Z
2022-01-06T12:32:41Z,42.805,6.029,13.3034,4.60092,2470.04,2022-1-06T14:34:11Z
2022-01-06T12:35:44Z,42.805,6.029,13.3026,4.60093,2470.017,2022-1-06T14:37:14Z
2022-01-06T12:38:47Z,42.805,6.029,13.3009,4.60092,2470.03,2022-1-06T14:40:18Z
2022-01-06T12:41:51Z,42.805,6.029,13.3009,4.60087,2470.017,2022-1-06T14:43:21Z
2022-01-06T12:44:54Z,42.805,6.029,13.3006,4.60072,2470.007,2022-1-06T14:46:24Z
2022-01-06T12:47:57Z,42.805,6.029,13.3007,4.60077,2469.993,2022-1-06T14:49:27Z
2022-01-06T12:51:00Z,42.805,6.029,13.3012,4.60094,2469.993,2022-1-06T14:52:30Z
2022-01-06T12:54:03Z,42.805,6.029,13.3011,4.60069,2470.007,2022-1-06T14:55:33Z
2022-01-06T12:57:06Z,42.805,6.029,13.3008,4.60072,2470.007,2022-1-06T14:58:36Z
2022-01-06T13:00:09Z,42.805,6.029,13.3001,4.60074,2470.03,2022-1-06T15:01:40Z
2022-01-06T13:03:12Z,42.805,6.029,13.3009,4.60075,2470.007,2022-1-06T15:04:43Z
2022-01-06T13:06:15Z,42.805,6.029,13.3016,4.60108,2470.007,2022-1-06T15:07:46Z
2022-01-06T13:09:19Z,42.805,6.029,13.3024,4.60110,2469.947,2022-1-06T15:10:49Z
2022-01-06T13:12:22Z,42.805,6.029,13.3009,4.60089,2469.993,2022-1-06T15:13:52Z
2022-01-06T13:15:25Z,42.805,6.029,13.3020,4.60062,2469.97,2022-1-06T15:16:55Z
2022-01-06T13:18:28Z,42.805,6.029,13.3014,4.60074,2469.993,2022-1-06T15:19:58Z
2022-01-06T13:21:31Z,42.805,6.029,13.3012,4.60082,2469.97,2022-1-06T15:23:01Z
2022-01-06T13:24:34Z,42.805,6.029,13.3008,4.60074,2469.96,2022-1-06T15:26:04Z
2022-01-06T13:27:37Z,42.805,6.029,13.3016,4.60092,2469.947,2022-1-06T15:29:08Z
2022-01-06T13:30:40Z,42.805,6.029,13.3009,4.60081,2469.947,2022-1-06T15:32:11Z
2022-01-06T13:33:44Z,42.805,6.029,13.3011,4.60090,2469.947,2022-1-06T15:35:14Z
2022-01-06T13:36:47Z,42.805,6.029,13.3011,4.60107,2469.984,2022-1-06T15:38:17Z
2022-01-06T13:39:50Z,42.805,6.029,13.3010,4.60093,2469.979,2022-1-06T15:41:20Z
2022-01-06T13:42:53Z,42.805,6.029,13.3032,4.60087,2469.947,2022-1-06T15:44:23Z
2022-01-06T13:45:56Z,42.805,6.029,13.3017,4.60102,2469.993,2022-1-06T15:47:26Z
2022-01-06T13:48:59Z,42.805,6.029,13.3020,4.60100,2469.97,2022-1-06T15:50:29Z
2022-01-06T13:52:02Z,42.805,6.029,13.3018,4.60087,2469.96,2022-1-06T15:53:33Z
2022-01-06T13:55:05Z,42.805,6.029,13.3018,4.60110,2469.984,2022-1-06T15:56:36Z
2022-01-06T13:58:09Z,42.805,6.029,13.3065,4.60099,2469.96,2022-1-06T15:59:39Z
2022-01-06T14:01:12Z,42.805,6.029,13.3024,4.60114,2469.984,2022-1-06T16:02:42Z
2022-01-06T14:04:15Z,42.805,6.029,13.3029,4.60116,2469.937,2022-1-06T16:05:45Z
2022-01-06T14:07:18Z,42.805,6.029,13.3014,4.60101,2469.96,2022-1-06T16:08:48Z
2022-01-06T14:10:21Z,42.805,6.029,13.3036,4.60112,2469.9,2022-1-06T16:11:51Z
2022-01-06T14:13:24Z,42.805,6.029,13.3029,4.60080,2469.96,2022-1-06T16:14:54Z
2022-01-06T14:16:27Z,42.805,6.029,13.3022,4.60099,2469.984,2022-1-06T16:17:58Z
2022-01-06T14:19:30Z,42.805,6.029,13.3025,4.60076,2469.947,2022-1-06T16:21:01Z
2022-01-06T14:22:34Z,42.805,6.029,13.3032,4.60094,2469.923,2022-1-06T16:24:04Z
2022-01-06T14:25:37Z,42.805,6.029,13.3014,4.60081,2469.937,2022-1-06T16:27:07Z
2022-01-06T14:28:40Z,42.805,6.029,13.3012,4.60069,2469.914,2022-1-06T16:30:10Z
2022-01-06T14:31:43Z,42.805,6.029,13.3020,4.60101,2469.9,2022-1-06T16:33:13Z
2022-01-06T14:34:46Z,42.805,6.029,13.3019,4.60097,2469.937,2022-1-06T16:36:16Z
2022-01-06T14:37:49Z,42.805,6.029,13.3019,4.60096,2469.923,2022-1-06T16:39:19Z
2022-01-06T14:40:52Z,42.805,6.029,13.3014,4.60099,2469.876,2022-1-06T16:42:23Z
2022-01-06T14:43:55Z,42.805,6.029,13.3015,4.60103,2469.914,2022-1-06T16:45:26Z
2022-01-06T14:46:59Z,42.805,6.029,13.3016,4.60079,2469.923,2022-1-06T16:48:29Z
2022-01-06T14:50:02Z,42.805,6.029,13.3021,4.60079,2469.914,2022-1-06T16:51:32Z
2022-01-06T14:53:05Z,42.805,6.029,13.3025,4.60081,2469.914,2022-1-06T16:54:35Z
2022-01-06T14:56:08Z,42.805,6.029,13.3017,4.60081,2469.9,2022-1-06T16:57:38Z
2022-01-06T14:59:11Z,42.805,6.029,13.3026,4.60063,2469.923,2022-1-06T17:00:41Z
2022-01-06T15:02:14Z,42.805,6.029,13.3037,4.60114,2469.9,2022-1-06T17:03:44Z
2022-01-06T15:05:17Z,42.805,6.029,13.3026,4.60092,2469.9,2022-1-06T17:06:48Z
2022-01-06T15:08:20Z,42.805,6.029,13.3026,4.60085,2469.89,2022-1-06T17:09:51Z
2022-01-06T15:11:24Z,42.805,6.029,13.3027,4.60081,2469.876,2022-1-06T17:12:54Z
2022-01-06T15:14:27Z,42.805,6.029,13.3030,4.60105,2469.9,2022-1-06T17:15:57Z